Ponca City, OK

1:25 PM CST on November 20, 2019 (GMT -0600)
Ponca City Municipal

Weather History for KPNC - July, 2019

Change the Weather History Date:

Thursday, July 18, 2019

  Actual Average Record
Temperature  
Mean Temperature 88 °F -  
Max Temperature 98 °F 96 °F 111 °F (1954)
Min Temperature 79 °F 72 °F 58 °F (1950)
Cooling Degree Days 24    
Growing Degree Days 38 (Base 50)    
Moisture  
Dew Point 70 °F    
Average Humidity 56    
Maximum Humidity 77    
Minimum Humidity 40    
Precipitation  
Precipitation 0.00 in - - ()
Sea Level Pressure  
Sea Level Pressure 29.81 in    
Wind  
Wind Speed 10 mph (South)    
Max Wind Speed 18 mph    
Max Gust Speed 26 mph    
Visibility 10 miles    
Events      
Averages and records for this station are not official NWS values.
T = Trace of Precipitation, MM = Missing Value Source: NWS Daily Summary

Daily Weather History Graph

Daily Weather History Graph

Search for Another Location

Airport or City:

Astronomy

Jul. 18, 2019 Rise Set
Actual Time 6:23 AM CDT 8:45 PM CDT
Civil Twilight 5:53 AM CDT 9:15 PM CDT
Nautical Twilight 5:17 AM CDT 9:51 PM CDT
Astronomical Twilight 4:36 AM CDT 10:31 PM CDT
Moon 10:13 PM CDT (7/18) 7:52 AM CDT (7/18)
Length of Visible Light 15h 21m
Length of Day
14h 22m
Full, 97% of the Moon is Illuminated
Jul 18
Full
Jul 24
Last Quarter
Jul 31
New
Aug 7
First Quarter
Aug 15
Full

Hourly Weather History & Observations

Time (CDT) Temp. Heat Index Dew Point Humidity Pressure Visibility Wind Dir Wind Speed Gust Speed Precip Events Conditions
12:53 AM 84.0 °F 88.4 °F 70.0 °F 63% 29.87 in 10.0 mi South 8.1 mph - N/A   Clear
1:53 AM 82.9 °F 86.5 °F 69.1 °F 63% 29.85 in 10.0 mi South 10.4 mph - N/A   Clear
2:53 AM 81.0 °F 84.1 °F 69.1 °F 67% 29.83 in 10.0 mi South 9.2 mph - N/A   Clear
3:53 AM 81.0 °F 84.4 °F 70.0 °F 69% 29.83 in 10.0 mi South 9.2 mph - N/A   Clear
4:53 AM 80.1 °F 83.2 °F 70.0 °F 71% 29.84 in 10.0 mi South 10.4 mph 19.6 mph N/A   Clear
5:53 AM 79.0 °F - 70.0 °F 74% 29.84 in 10.0 mi South 8.1 mph - N/A   Clear
6:53 AM 79.0 °F - 71.1 °F 77% 29.86 in 10.0 mi South 6.9 mph - N/A   Clear
7:53 AM 80.1 °F 83.6 °F 71.1 °F 74% 29.86 in 10.0 mi South 8.1 mph - N/A   Clear
8:53 AM 84.0 °F 89.0 °F 71.1 °F 65% 29.86 in 10.0 mi South 8.1 mph 18.4 mph N/A   Clear
9:53 AM 88.0 °F 94.7 °F 72.0 °F 59% 29.84 in 10.0 mi SSW 11.5 mph 23.0 mph N/A   Clear
10:53 AM 91.0 °F 97.6 °F 71.1 °F 52% 29.82 in 10.0 mi SSW 11.5 mph 25.3 mph N/A   Clear
11:53 AM 93.0 °F 100.7 °F 72.0 °F 50% 29.81 in 10.0 mi South 11.5 mph 26.5 mph N/A   Clear
12:53 PM 95.0 °F 103.2 °F 72.0 °F 47% 29.80 in 10.0 mi SSW 15.0 mph 24.2 mph N/A   Clear
1:53 PM 96.1 °F 104.9 °F 72.0 °F 46% 29.78 in 10.0 mi SSW 13.8 mph 23.0 mph N/A   Clear
2:53 PM 98.1 °F 106.5 °F 71.1 °F 42% 29.76 in 10.0 mi South 12.7 mph 21.9 mph N/A   Clear
3:53 PM 98.1 °F 105.0 °F 70.0 °F 40% 29.75 in 10.0 mi South 12.7 mph 24.2 mph N/A   Clear
4:53 PM 97.0 °F 104.8 °F 71.1 °F 43% 29.74 in 10.0 mi SSW 11.5 mph 25.3 mph N/A   Clear
5:53 PM 96.1 °F 102.9 °F 70.0 °F 43% 29.74 in 10.0 mi South 18.4 mph 26.5 mph N/A   Clear
6:53 PM 95.0 °F 101.3 °F 70.0 °F 44% 29.74 in 10.0 mi South 12.7 mph 23.0 mph N/A   Clear
7:53 PM 93.0 °F 99.0 °F 70.0 °F 47% 29.75 in 10.0 mi South 11.5 mph 21.9 mph N/A   Clear
8:53 PM 90.0 °F 95.4 °F 70.0 °F 52% 29.76 in 10.0 mi South 11.5 mph 24.2 mph N/A   Clear
9:53 PM 88.0 °F 92.1 °F 69.1 °F 53% 29.78 in 10.0 mi SSE 15.0 mph - N/A   Clear
10:53 PM 87.1 °F 90.6 °F 68.0 °F 53% 29.80 in 10.0 mi South 12.7 mph 21.9 mph N/A   Clear
11:53 PM 84.9 °F 87.1 °F 66.0 °F 53% 29.81 in 10.0 mi SSE 15.0 mph 24.2 mph N/A   Clear